Time,TemperatureF,DewpointF,PressureIn,WindDirection,WindDirectionDegrees,WindSpeedMPH,WindSpeedGustMPH,Humidity,HourlyPrecipIn,Conditions,Clouds,dailyrainin,SoftwareType,DateUTC
2013-01-11 00:02:00,12.0,8.0,-100.00,SE,124,1.0,2.0,87,0.00,,,0.00,,2013-01-11 07:02:00,
2013-01-11 00:11:00,12.0,8.0,-100.00,SE,124,1.0,2.0,87,0.00,,,0.00,,2013-01-11 07:11:00,
2013-01-11 00:52:00,11.0,8.0,-100.00,SW,221,3.0,4.0,87,0.00,,,0.00,,2013-01-11 07:52:00,
2013-01-11 01:02:00,11.0,8.0,-100.00,SW,221,3.0,4.0,87,0.00,,,0.00,,2013-01-11 08:02:00,
2013-01-11 01:12:00,11.0,8.0,-100.00,SW,221,3.0,4.0,87,0.00,,,0.00,,2013-01-11 08:12:00,
2013-01-11 01:52:00,10.0,7.0,-100.00,ENE,78,0.0,2.0,87,0.00,,,0.00,,2013-01-11 08:52:00,
2013-01-11 02:02:00,10.0,7.0,-100.00,ENE,78,0.0,2.0,87,0.00,,,0.00,,2013-01-11 09:02:00,
2013-01-11 02:12:00,10.0,7.0,-100.00,ENE,78,0.0,2.0,87,0.00,,,0.00,,2013-01-11 09:12:00,
2013-01-11 02:52:00,10.0,7.0,-100.00,NNW,331,0.0,1.0,87,0.00,,,0.00,,2013-01-11 09:52:00,
2013-01-11 03:02:00,10.0,7.0,-100.00,NNW,331,0.0,1.0,87,0.00,,,0.00,,2013-01-11 10:02:00,
2013-01-11 03:12:00,10.0,7.0,-100.00,NNW,331,0.0,1.0,87,0.00,,,0.00,,2013-01-11 10:12:00,
2013-01-11 03:52:00,9.0,6.0,-100.00,North,354,0.0,1.0,87,0.00,,,0.00,,2013-01-11 10:52:00,
2013-01-11 04:02:00,9.0,6.0,-100.00,North,354,0.0,1.0,87,0.00,,,0.00,,2013-01-11 11:02:00,
2013-01-11 04:12:00,9.0,6.0,-100.00,North,354,0.0,1.0,87,0.00,,,0.00,,2013-01-11 11:12:00,
2013-01-11 04:53:00,9.0,5.0,-100.00,SW,221,0.0,0.0,86,0.00,,,-99.99,,2013-01-11 11:53:00,
2013-01-11 05:02:00,9.0,5.0,-100.00,SW,221,0.0,0.0,86,0.00,,,-99.99,,2013-01-11 12:02:00,
2013-01-11 05:12:00,9.0,5.0,-100.00,SW,221,0.0,0.0,86,0.00,,,-99.99,,2013-01-11 12:12:00,
2013-01-11 05:53:00,7.0,4.0,-100.00,NNW,342,2.0,4.0,86,0.00,,,0.00,,2013-01-11 12:53:00,
2013-01-11 06:02:00,7.0,4.0,-100.00,NNW,342,2.0,4.0,86,0.00,,,0.00,,2013-01-11 13:02:00,
2013-01-11 06:12:00,7.0,4.0,-100.00,NNW,342,2.0,4.0,86,0.00,,,0.00,,2013-01-11 13:12:00,
2013-01-11 06:53:00,6.0,2.0,-100.00,North,1,1.0,2.0,85,0.00,,,0.00,,2013-01-11 13:53:00,
2013-01-11 07:03:00,6.0,2.0,-100.00,North,1,1.0,2.0,85,0.00,,,0.00,,2013-01-11 14:03:00,
2013-01-11 07:12:00,6.0,2.0,-100.00,North,1,1.0,2.0,85,0.00,,,0.00,,2013-01-11 14:12:00,
2013-01-11 07:53:00,6.0,2.0,-100.00,North,350,2.0,5.0,85,0.00,,,0.00,,2013-01-11 14:53:00,
2013-01-11 08:03:00,6.0,2.0,-100.00,North,350,2.0,5.0,85,0.00,,,0.00,,2013-01-11 15:03:00,
2013-01-11 08:12:00,6.0,2.0,-100.00,North,350,2.0,5.0,85,0.00,,,0.00,,2013-01-11 15:12:00,
2013-01-11 08:53:00,4.0,0.0,-100.00,NW,321,3.0,7.0,83,0.00,,,0.00,,2013-01-11 15:53:00,
2013-01-11 09:02:00,4.0,0.0,-100.00,NW,321,3.0,7.0,83,0.00,,,0.00,,2013-01-11 16:02:00,
2013-01-11 09:12:00,4.0,0.0,-100.00,NW,321,3.0,7.0,83,0.00,,,0.00,,2013-01-11 16:12:00,
2013-01-11 09:53:00,4.0,0.0,-100.00,NNW,339,2.0,4.0,83,0.00,,,0.00,,2013-01-11 16:53:00,
2013-01-11 10:03:00,4.0,0.0,-100.00,NNW,339,2.0,4.0,83,0.00,,,0.00,,2013-01-11 17:03:00,
2013-01-11 10:12:00,4.0,0.0,-100.00,NNW,339,2.0,4.0,83,0.00,,,0.00,,2013-01-11 17:12:00,
2013-01-11 10:53:00,4.0,0.0,-100.00,NNW,335,3.0,7.0,83,0.00,,,0.00,,2013-01-11 17:53:00,
2013-01-11 11:03:00,4.0,0.0,-100.00,NNW,335,3.0,7.0,83,0.00,,,0.00,,2013-01-11 18:03:00,
2013-01-11 11:12:00,4.0,0.0,-100.00,NNW,335,3.0,7.0,83,0.00,,,0.00,,2013-01-11 18:12:00,
2013-01-11 11:53:00,4.0,0.0,-100.00,NNW,346,3.0,4.0,83,0.00,,,-99.99,,2013-01-11 18:53:00,
2013-01-11 12:02:00,4.0,0.0,-100.00,NNW,346,3.0,4.0,83,0.00,,,-99.99,,2013-01-11 19:02:00,
2013-01-11 12:12:00,4.0,0.0,-100.00,NNW,346,3.0,4.0,83,0.00,,,-99.99,,2013-01-11 19:12:00,
2013-01-11 12:53:00,3.0,-1.0,-100.00,NW,313,3.0,6.0,81,0.00,,,0.00,,2013-01-11 19:53:00,
2013-01-11 13:02:00,3.0,-1.0,-100.00,NW,313,3.0,6.0,81,0.00,,,0.00,,2013-01-11 20:02:00,
2013-01-11 13:12:00,3.0,-1.0,-100.00,NW,313,3.0,6.0,81,0.00,,,0.00,,2013-01-11 20:12:00,
2013-01-11 13:53:00,3.0,-1.0,-100.00,NNW,347,4.0,8.0,81,0.00,,,0.00,,2013-01-11 20:53:00,
2013-01-11 14:03:00,3.0,-1.0,-100.00,NNW,347,4.0,8.0,81,0.00,,,0.00,,2013-01-11 21:03:00,
2013-01-11 14:12:00,3.0,-1.0,-100.00,NNW,347,4.0,8.0,81,0.00,,,0.00,,2013-01-11 21:12:00,
2013-01-11 14:53:00,3.0,-1.0,-100.00,NNW,343,4.0,8.0,81,0.00,,,0.00,,2013-01-11 21:53:00,
2013-01-11 15:02:00,3.0,-1.0,-100.00,NNW,343,4.0,8.0,81,0.00,,,0.00,,2013-01-11 22:02:00,
2013-01-11 15:12:00,3.0,-1.0,-100.00,NNW,343,4.0,8.0,81,0.00,,,0.00,,2013-01-11 22:12:00,
2013-01-11 15:53:00,2.0,-2.0,-100.00,NNW,337,4.0,8.0,81,0.00,,,0.00,,2013-01-11 22:53:00,
2013-01-11 16:02:00,2.0,-2.0,-100.00,NNW,337,4.0,8.0,81,0.00,,,0.00,,2013-01-11 23:02:00,
2013-01-11 16:12:00,2.0,-2.0,-100.00,NNW,337,4.0,8.0,81,0.00,,,0.00,,2013-01-11 23:12:00,
2013-01-11 16:53:00,-1.0,-5.0,-100.00,North,351,4.0,6.0,80,0.00,,,-99.99,,2013-01-11 23:53:00,
2013-01-11 17:02:00,-1.0,-5.0,-100.00,North,351,4.0,6.0,80,0.00,,,-99.99,,2013-01-12 00:02:00,
2013-01-11 17:12:00,-1.0,-5.0,-100.00,North,351,4.0,6.0,80,0.00,,,-99.99,,2013-01-12 00:12:00,
2013-01-11 17:53:00,-1.0,-6.0,-100.00,NNW,335,5.0,7.0,80,0.00,,,0.00,,2013-01-12 00:53:00,
2013-01-11 18:02:00,-1.0,-6.0,-100.00,NNW,335,5.0,7.0,80,0.00,,,0.00,,2013-01-12 01:02:00,
2013-01-11 18:12:00,-1.0,-6.0,-100.00,NNW,335,5.0,7.0,80,0.00,,,0.00,,2013-01-12 01:12:00,
2013-01-11 18:52:00,-3.0,-7.0,-100.00,North,351,3.0,5.0,80,0.00,,,0.00,,2013-01-12 01:52:00,
2013-01-11 19:02:00,-3.0,-7.0,-100.00,North,351,3.0,5.0,80,0.00,,,0.00,,2013-01-12 02:02:00,
2013-01-11 19:12:00,-3.0,-7.0,-100.00,North,351,3.0,5.0,80,0.00,,,0.00,,2013-01-12 02:12:00,
2013-01-11 19:53:00,-3.0,-8.0,-100.00,NW,325,1.0,3.0,80,0.00,,,0.00,,2013-01-12 02:53:00,
2013-01-11 20:02:00,-3.0,-8.0,-100.00,NW,325,1.0,3.0,80,0.00,,,0.00,,2013-01-12 03:02:00,
2013-01-11 20:12:00,-3.0,-8.0,-100.00,NW,325,1.0,3.0,80,0.00,,,0.00,,2013-01-12 03:12:00,
2013-01-11 20:53:00,-3.0,-8.0,-100.00,West,270,2.0,2.0,79,0.00,,,0.00,,2013-01-12 03:53:00,
2013-01-11 21:02:00,-3.0,-8.0,-100.00,West,270,2.0,2.0,79,0.00,,,0.00,,2013-01-12 04:02:00,
2013-01-11 21:12:00,-3.0,-8.0,-100.00,West,270,2.0,2.0,79,0.00,,,0.00,,2013-01-12 04:12:00,
2013-01-11 21:52:00,-5.0,-9.0,-100.00,NNW,343,1.0,3.0,79,0.00,,,0.00,,2013-01-12 04:52:00,
2013-01-11 22:03:00,-5.0,-9.0,-100.00,NNW,343,1.0,3.0,79,0.00,,,0.00,,2013-01-12 05:03:00,
2013-01-11 22:12:00,-5.0,-9.0,-100.00,NNW,343,1.0,3.0,79,0.00,,,0.00,,2013-01-12 05:12:00,
2013-01-11 22:52:00,-5.0,-10.0,-100.00,WNW,286,5.0,6.0,79,-99.99,,,-99.99,,2013-01-12 05:52:00,
2013-01-11 23:02:00,-5.0,-10.0,-100.00,WNW,286,5.0,6.0,79,-99.99,,,-99.99,,2013-01-12 06:02:00,
2013-01-11 23:12:00,-5.0,-10.0,-100.00,WNW,286,5.0,6.0,79,-99.99,,,-99.99,,2013-01-12 06:12:00,
2013-01-11 23:52:00,-5.0,-10.0,-100.00,West,274,3.0,4.0,79,0.00,,,-99.99,,2013-01-12 06:52:00,